Showing default

FLOCK 4BE 26, 60484

Orbit data source: Space-Track

FLOCK 4BE 26, 60484 is a payload satellite owned by Planet (US) in SSO that was launched on Fri, 16 Aug 2024 UTC via an FALCON 9 launch vehicle from the Air Force Western Test Range (AFWTR). Payload-class satellites include a variety of spacecraft equipped with specific instruments for various scientific and technological missions. These include communications satellites like Starlink; space stations such as the ISS; scientific satellites like the Hubble; Earth observation satellites from companies like Planet Labs, Umbra, and HawkEye 360; GPS; miniature CubeSats for education and research; and military/defense satellites.

Loading next visibility...
Identifier
60484, 2024-149S
Orbit
SSO
Country
Flag of USUS
Related business
Manufacturer
Planet
Mission
Operational Commercial Imaging
Bus & Motor
CUBESAT 3U, Unknown motor
Mass
5.7 kg wet, 5.7 kg dry
Launch date (UTC)
2024-08-16 (1 year ago)
Launch vehicle
FALCON 9
Launch site
Air Force Western Test Range (AFWTR)
Object type
Payload
Rocket body
Debris
Shape & HBR
Box + 2 Pan, 1.0 m
Radar Cross Section
0.072 m², Medium (>0.1 m² and < 1m²)

Expand to show TLE details & history
Last TLE update: 13 hours ago

TLE from 13 hours ago
0 FLOCK 4BE 26
1 60484U 24149S   25300.19099901  .00016980  00000-0  55774-3 0  9995
2 60484  97.3954  17.6157 0003982  30.5228 329.6244 15.31629452 66505
Epoch: 2025-10-27T04:35Z
TLE epoch observation values (Epoch: 2025-10-27T04:35:02.314Z)
Latitude
-0.00008°
Longitude
-86.94032°
Altitude
471.704 km
Speed
7.631 km/s
True Right ascension
01h 10m 27s
True Declination
0° 00' 00"
Sunlit
Object was in full shadow at epoch
Visualization orbit readout
Latitude
Unknown
Longitude
Unknown
Altitude
Unknown
Speed
Unknown
Apparent Right ascension
Unknown
Apparent Declination
Unknown
Sunlit
N/A
Visualization observer readout
Local Sidereal Time
13:22:01
Azimuth
Unknown
Elevation
Unknown
Doppler factor
Unknown
Orbital elements
Apogee altitude
470.626 km
Perigee altitude
465.174 km
Semi-major axis
6,846.037 km
Eccentricity
0.0004
Inclination
97.3954°
RAAN
17.6157°
Arg. of periapsis
30.5228°
True anomaly
329.60132°
Mean anomaly
329.6244°
Eccentric anomaly
329.61286°
Mean motion
3.83164 °/min
Orbital period
93.95 mins
BSTAR
0.00055774
Loading maneuver chart data...
Computing Atmospheric mass density...
Loading historical data...
Loading historical data...
Loading historical data...
Loading historical data...
Loading historical data...
Loading historical data...
Loading historical data...

Documentation

Showing up to 5 results
|